{"data":{"norad_id":58487,"epoch":"2026-05-24T23:47:07.361952Z","epoch_age_seconds":75532,"freshness":"FRESH","line1":"1 58487U 23186Q   26144.99105743  .00001732  00000+0  72435-4 0  9994","line2":"2 58487  43.0021 352.8949 0001180 276.9226  83.1491 15.27581611137552","mean_motion":15.27581611,"eccentricity":0.000118,"inclination_deg":43.0021,"raan_deg":352.8949,"arg_perigee_deg":276.9226,"mean_anomaly_deg":83.1491,"bstar":7.2435e-5,"rev_number":13755,"period_min":94.266649299171,"perigee_km":482.23465274023,"apogee_km":483.85389152045,"semimajor_km":6861.1812721303,"source":"CELESTRAK","updated_at":"2026-05-25T13:38:18.652857Z"}}